Home   Weather   Salem   Past weeks

Flag for USA Past Weather in Salem, Oregon, USA — Yesterday and Last 2 Weeks

Now
45 °F

Light rain. Overcast.


Feels Like: 41 °F
Forecast: 38 / 48 °F
Wind: 7 mph from Northwest

Location: McNary Field

Current Time: Feb 21, 2017 at 6:33:44 am

Latest Report: Feb 21, 2017 at 5:56 am


Visibility: 7 mi

Pressure: 29.70 "Hg

Humidity: 93%

Dew Point: 43 °F

Location of SalemLocation

Past Weather in Salem — Graph

°F

Salem Temperature Yesterday

Maximum temperature yesterday: 51 °F (at 3:56 pm)
Minimum temperature yesterday: 43 °F (at 3:56 am)
Average temperature yesterday: 46 °F

High & Low Weather Summary for the Past Weeks

 TemperatureHumidityPressure
High60 °F (Feb 9, 12:56 pm)97% (Feb 17, 4:44 am)30.51 "Hg (Feb 17, 4:44 am)
Low29 °F (Feb 13, 5:56 am)40% (Feb 13, 1:56 pm)29.36 "Hg (Feb 9, 7:56 am)
Average45 °F83%29.79 "Hg
* Reported Feb 6 5:05 am — Feb 21 4:56 am, Salem, Weather by CustomWeather, © 2017

Note: Actual official high and low records may vary slightly from our data, if they occured in-between our weather recording intervals... More about our weather records

Advertising

Salem Weather History for the Previous 24 Hours

Scroll right to see more
 ConditionsComfort  
Time TempWeatherWind HumidityBarometerVisibility
4:56 am
Tue, Feb 21
45 °FLight rain. Fog.3 mph93%29.68 "Hg5 mi
4:42 am45 °FLight rain. Fog.3 mph93%29.67 "Hg5 mi
3:56 am45 °FLight rain. Fog.6 mph93%29.66 "Hg6 mi
3:38 am45 °FLight rain. Fog.7 mph93%29.66 "Hg6 mi
2:56 am45 °FLight rain. Fog.5 mph93%29.65 "Hg6 mi
2:26 am46 °FLight rain. Fog.3 mph93%29.65 "Hg5 mi
1:56 am46 °FRain. Fog.No wind93%29.65 "Hg4 mi
1:42 am46 °FRain. Fog.5 mph93%29.64 "Hg4 mi
1:04 am46 °FLight rain. Fog.5 mph93%29.64 "Hg4 mi
12:56 am46 °FLight rain. Fog.3 mph93%29.65 "Hg4 mi
11:56 pm
Mon, Feb 20
46 °FLight rain. Fog.3 mph93%29.64 "Hg5 mi
10:56 pm46 °FLight rain. Overcast.No wind93%29.64 "Hg10 mi
9:56 pm47 °FLight rain. Overcast.No wind90%29.66 "Hg10 mi
9:11 pm47 °FLight rain. Mostly cloudy.5 mph90%29.67 "Hg10 mi
8:56 pm47 °FLight rain. Mostly cloudy.3 mph90%29.68 "Hg10 mi
8:13 pm46 °FMostly cloudy.No wind93%29.67 "Hg10 mi
7:56 pm46 °FOvercast.No wind93%29.67 "Hg10 mi
7:16 pm47 °FPassing clouds.5 mph90%29.68 "Hg10 mi
6:56 pm46 °FPassing clouds.3 mph89%29.68 "Hg10 mi
5:56 pm49 °FMostly cloudy.No wind80%29.69 "Hg10 mi
4:56 pm50 °FLight rain. Mostly cloudy.10 mph77%29.70 "Hg10 mi
3:56 pm51 °FCloudy.9 mph74%29.70 "Hg10 mi
2:56 pm50 °FLight rain. Mostly cloudy.8 mph80%29.70 "Hg8 mi
2:33 pm50 °FLight rain. Mostly cloudy.10 mph77%29.70 "Hg10 mi
1:56 pm50 °FLight rain. Cloudy.8 mph77%29.69 "Hg10 mi
12:56 pm49 °FOvercast.6 mph80%29.70 "Hg10 mi
11:56 am48 °FLight rain. Mostly cloudy.10 mph77%29.69 "Hg10 mi
11:03 am47 °FMore clouds than sun.12 mph86%29.64 "Hg10 mi
10:56 am47 °FMostly cloudy.9 mph83%29.63 "Hg10 mi
9:56 am44 °FLight rain. Fog.8 mph89%29.52 "Hg5 mi
8:56 am44 °FRain. Fog.5 mph89%29.41 "Hg3 mi
7:56 am44 °FLight rain. Fog.3 mph89%29.39 "Hg4 mi
6:56 am43 °FLight rain. Mostly cloudy.6 mph93%29.39 "Hg7 mi
Weather by CustomWeather, © 2017

See weather overviewHow to use our weather pages